Погода Преображение

Погода Преображение : погода сейчас, прогноз погоды и архив. Всё, что Вы хотите узнать о погоде Преображение!

Хотите узнать прогноз погоды Преображение? Тогда Вам сюда: Погода Преображение

Поиск расширенной информации на нашем сайте:

Другие новости

Новости СМИ2

Главная страница сайта

Новости сайта

03.07.2017

Напоминаем, что на нашем специализированном сайте Метеоцентр.Азия вы можете получить высокодетализированные автоматические прогнозы погоды по пунктам России, СНГ и мира в авиационном формате (включающие направление и скорость ветра, видимость, явления погоды, количество и форму облачности, нижнюю и верхнюю границу облачности).


Погода Преображение - сегодня

Время (UTC), дата Ветер
(°,м/с) 
Видим.   Явления Облачность Т
(°С)
Тd
(°С)
f(%) Тe
(°С)
Pmin
(гПа)
dP
(гПа)
Po
(мм)
O2
(г/м3)
Тmin Tmax R s Состояние
почвы
18 20.06.18 тихо ()   10 км  слаб. ливневой дождь  10/10 100 м кучево-дожд. 
[Cb cap]
+11.9 +10.5 91 +14  999.3  746  286           
00 21.06.18 260 (З) 0500 м  туман{ливн. осадки}  ?/?  
+13.4 +13.4 100 +21  999  0.4  745  284           
03 21.06.18 190 (Ю) 20000 м  в посл. час ливневой дождь{туман}  10/6 300 м средняя 
[St|Ac und]
+16.6 +13.8 84 +25  997.7  -1.2  745  280           
06 21.06.18 110 (В) 20000 м  {ливн. осадки, туман}  8/5 600 м кучево-дожд., средняя 
[Cb cap|Ac cuf]
+20.1 +12.8 63 +25  996.9  -0.7  744  277           
12 21.06.18 тихо ()   20000 м    ясно 
+15.1 +11.3 78 +18  1000.4  2.6  746  283           
15 21.06.18 020 (С) 20000 м    ясно 
+14.1 +10.1 77 +16  1001.1  0.8  747  284           
18 21.06.18 тихо ()   20000 м    ясно 
+13.9 +10.1 78 +15  1000.6  -0.6  747  284           
00 22.06.18 200 (Ю) 20000 м    1/1 600 м кучево-дожд. 
[Cb cap]
+17.6 +10.8 64 +21  1001.6  0.1  747  281           
03 22.06.18 210 (ЮЗ) 20000 м    4/4 600 м 
[Cu hum]
+21.1 +11 52 +24  1001.2  -0.4  747  277           
06 22.06.18 220 (ЮЗ) 20000 м    8/3 600 м верхняя 
[Cu hum|Ci fib]
+24.7 +12.4 46 +29  1000  -1.1  746  273           
12 22.06.18 070 (В) 20000 м    5/0 средняя, верхняя 
[Ac trans|Ci fib]
+18.2 +9.6 57 +21  1002.2  1.6  748  281           
15 22.06.18 160 (Ю) 20000 м    3/0 верхняя 
[Ci sp]
+16.4 +8.3 59 +18  1001.8  -0.4  748  283           
18 22.06.18 060 (СВ) 20000 м    9/0 средняя 
[Ac As]
+14.4 +10.1 75 +17  999.8  -2  746  284           
00 23.06.18 280 (З) 20000 м    9/9 600 м кучево-дожд. 
[Cb cap]
+17.8 +11.9 68 +23  998.1  -0.5  745  279           
03 23.06.18 190 (Ю) 20000 м    3/0 верхняя 
[Ci sp]
+20.2 +11.2 56 +23  996.8  -1.3  744  277           
06 23.06.18 160 (Ю) 20000 м    9/1 600 м верхняя 
[Cu hum|Ci]
+18.2 +10.9 62 +22  995.1  -1.7  743  278           
12 23.06.18 тихо ()   20000 м  в посл. час гроза{ливн. осадки}  6/3 600 м кучево-дожд., верхняя 
[Cb cap|Ci fib]
+16.8 +13.3 80 +23  998.3  1.8  745  280           
15 23.06.18 040 (СВ) 20000 м    ясно 
+19.4 +11.8 61 +24  999.8  1.5  746  278           
18 23.06.18 030 (СВ) 20000 м    ясно 
+15.6 +10 69 +17  1000.2  0.4  746  283           
00 24.06.18 120 (ЮВ) 20000 м    9/0 средняя, верхняя 
[Ac trans|Ci fib]
+14.3 +9.9 75 +15  1002.7  1.4  748  285  +14.2         
03 24.06.18 120 (ЮВ) 20000 м    9/1 600 м средняя 
[Cu med, cong|Ac cast]
+13.8 +9.5 75 +14  1004.1  1.5  749  286           
06 24.06.18 220 (ЮЗ) 20000 м    6/4 600 м средняя 
[Cu med, cong|Ac lent]
+16.5 +9.5 63 +19  1004.3  0.1  749  283           
12 24.06.18 тихо ()   20000 м    ясно 
+11.3 +9.5 89 +12  1008.5  2.4  753  289           
15 24.06.18 060 (СВ) 20000 м    ясно 
+10.1 +8.5 90 +11  1010.4  1.8  754  291           
18 24.06.18 тихо ()   0500 м  туман  ясно 
+10.4 +9 91 +10  1011.4  1.1  755  291           
Время (UTC), дата Ветер
(°,м/с) 
Видим.   Явления Облачность Т
(°С)
Тd
(°С)
f(%) Тe
(°С)
Pmin
(гПа)
dP
(гПа)
Po
(мм)
O2
(г/м3)
Тmin Tmax R s Состояние
почвы

Для получения пояснительной информации подведите курсор к названию столбца.

ПОГОДА Преображение - архив

Всё, что Вы хотите узнать о погоде Преображение - удобно и подробно!

Выберите нужную дату (начиная с 1 января 2015* года) и нажмите кнопку "Найти".
Будут отображены архивные сводки погоды по пункту Преображение, начиная с указанной даты.


Отображать данные в формате CSV (для использования в таблицах Excel)


Внимание! Наш архив погоды предназначен исключительно для личного некоммерческого использования в познавательных целях. Если Вам необходимы официальные справки о состоянии погоды (для производственных, юридических, коммерческих и т.п. целей), обращайтесь в органы Росгидромета.

*Примечание: данная дата относится к архиву по метеостанциям СССР (Россия, СНГ, Балтия).
Архив по метеостанциям Зарубежной Европы и Азии (кроме Китая) хранится 10 дней, по другим регионам земного шара (Китай, Африка, Америка, Австралия, Океания) - 1 день.

Преображение - район местоположения метеостанции


Название, широта, долгота, высота метеостанции:
Преображение 42.9°ш. 133.9°д. 43 м над ур. моря [Российская Федерация]

Дополнительная информация

В oтличие oт бoльшинства пoгoдных сайтoв мы публикуем пoдрoбную метеoинфoрмацию в детальнoм прoфессиoнальнoм фoрмате.

Характеристики температуры и влажнoсти вoздуха измеряются на высoте 2 м в тени вдали oт зданий и деревьев.
Скoрoсть ветра измеряется на высoте 10 м (на урoвне рoста челoвека скoрoсть ветра ниже в 1.5-2 раза). Если метеoстанция нахoдится в гoрoде или в лесу, тo скoрoсть ветра занижена на 2-4 м/с пo сравнению с oткрытым местoм. Скoрoсть ветра над акватoриями крупных рек и oзёр, а также на вершинах хoлмoв на 2-5 м/с выше, чем в oбычных услoвиях.
Атмoсфернoе давление в разных тoчках местнoсти мoжет значительнo oтличаться oт давления на метеoстанции, в зависимoсти oт услoвий рельефа (при пoдъёме на 10 м давление пoнижается примернo на 1 мм рт.ст.).